User: anonymous   Login
Location: Burgerwiesen
(48.6500°N, 15.6167°E)
Time: 16:38:57
(UTC+00:00)
Language:

Cosmos 1741 Rocket - Orbit

View from above orbital plane
View from above orbital plane
View from above satellite
View from above satellite

Ground track
Ground track

The orbit data is extracted from the following two-line orbital elements,

1 16682U 86030B   20184.92708194  .00000061  00000-0  29948-4 0  9998
2 16682  74.0269 344.5472 0014049  48.6140  64.6233 14.35908027790743
Epoch (UTC): 02 July 2020 22:14:59
Eccentricity: 0.0014049
inclination: 74.0269°
perigee height: 762 km
apogee height: 782 km
right ascension of ascending node: 344.5472°
argument of perigee: 48.6140°
revolutions per day: 14.35908027
mean anomaly at epoch: 64.6233°
orbit number at epoch: 79074

The dashed part of the orbit path shows where the satellite is in the earth's shadow,  

DLR